Back to catalog

STARLINK-37816

AliveCommunicationsSSO
NORAD 69478·PAYLOAD·🇺🇸 United States

Launched Jun 11, 2026 from Vandenberg Space Force Base

Loading…

Next Passes (next 24 hours)

TLE

FreshSource: CelesTrak SupGP

Epoch: Sep 14, 2026, 16:05 UTC

1 69478C 26131A   26257.67062500 -.00057924  00000+0 -17980-2 0  2577
2 69478  97.2832 278.7027 0001303 102.6513 110.2993 15.33469370    12

Track STARLINK-37816 in real time with AllMySat

Download on the App Store